UAL1146 KIAD-KCLE

Flight info

Callsign UAL1146
Flight time 0h 52m
Altitude 26000
Route JERES2 JERES J211 JST UPPRR TRYBE4
Aircraft B738/M-SDE2E3FGHIRWXY/LB1

Departure

Time 2026-05-06 18:30
Airport Washington Dulles International Airport (KIAD)

Arrival

Time 2026-05-06 19:22
Airport Cleveland Hopkins International Airport (KCLE)
Time Latitude Longitude Altitude Speed Heading
2026-05-06 17:56 38.94582 -77.44643 299 ft 0 kts 181°
2026-05-06 18:19 38.94588 -77.44643 301 ft 2 kts 177°
2026-05-06 18:19 38.94604 -77.44644 301 ft 2 kts 174°
2026-05-06 18:19 38.94621 -77.44647 301 ft 2 kts 168°
2026-05-06 18:19 38.94637 -77.44652 301 ft 2 kts 154°
2026-05-06 18:20 38.94650 -77.44664 300 ft 2 kts 125°
2026-05-06 18:20 38.94656 -77.44683 302 ft 2 kts 95°
2026-05-06 18:20 38.94657 -77.44687 302 ft 0 kts 92°
2026-05-06 18:22 38.94657 -77.44685 299 ft 1 kts 92°
2026-05-06 18:23 38.94656 -77.44625 299 ft 12 kts 91°
2026-05-06 18:23 38.94655 -77.44484 302 ft 17 kts 91°
2026-05-06 18:23 38.94653 -77.44334 301 ft 16 kts 91°
2026-05-06 18:23 38.94652 -77.44191 302 ft 16 kts 90°
2026-05-06 18:24 38.94651 -77.44103 302 ft 7 kts 90°
2026-05-06 18:24 38.94651 -77.44062 301 ft 0 kts 90°
2026-05-06 18:25 38.94651 -77.44061 301 ft 1 kts 90°
2026-05-06 18:25 38.94649 -77.44007 301 ft 11 kts 94°
2026-05-06 18:25 38.94644 -77.43904 302 ft 8 kts 84°
2026-05-06 18:25 38.94675 -77.43863 299 ft 7 kts 19°
2026-05-06 18:26 38.94756 -77.43857 299 ft 16 kts
2026-05-06 18:26 38.94873 -77.43856 299 ft 17 kts
2026-05-06 18:26 38.94987 -77.43854 300 ft 16 kts
2026-05-06 18:26 38.95096 -77.43852 299 ft 15 kts
2026-05-06 18:27 38.95201 -77.43851 301 ft 15 kts
2026-05-06 18:27 38.95302 -77.43849 302 ft 14 kts
2026-05-06 18:27 38.95398 -77.43848 301 ft 14 kts
2026-05-06 18:27 38.95462 -77.43841 300 ft 8 kts 22°
2026-05-06 18:28 38.95483 -77.43785 300 ft 7 kts 90°
2026-05-06 18:28 38.95482 -77.43721 300 ft 7 kts 90°
2026-05-06 18:28 38.95482 -77.43658 303 ft 7 kts 90°
2026-05-06 18:28 38.95464 -77.43606 301 ft 7 kts 156°
2026-05-06 18:29 38.95417 -77.43603 300 ft 7 kts 180°
2026-05-06 18:29 38.95315 -77.43604 299 ft 37 kts 180°
2026-05-06 18:29 38.94802 -77.43610 301 ft 108 kts 180°
2026-05-06 18:29 38.93859 -77.43622 405 ft 153 kts 181°
2026-05-06 18:30 38.93174 -77.43627 999 ft 147 kts 184°
2026-05-06 18:30 38.92104 -77.43641 1631 ft 164 kts 191°
2026-05-06 18:30 38.90830 -77.44789 2412 ft 181 kts 242°
2026-05-06 18:30 38.90643 -77.46343 3383 ft 183 kts 275°
2026-05-06 18:31 38.91131 -77.47983 3748 ft 215 kts 297°
2026-05-06 18:31 38.91689 -77.49125 3988 ft 231 kts 300°
2026-05-06 18:31 38.92655 -77.50811 4729 ft 241 kts 304°
2026-05-06 18:31 38.93916 -77.52280 5607 ft 256 kts 329°
2026-05-06 18:32 38.95694 -77.52802 6590 ft 268 kts 346°
2026-05-06 18:32 38.97586 -77.53005 7374 ft 278 kts 348°
2026-05-06 18:32 38.99550 -77.53167 8149 ft 285 kts 348°
2026-05-06 18:32 39.01528 -77.53324 8988 ft 291 kts 348°
2026-05-06 18:33 39.03575 -77.53492 9896 ft 298 kts 348°
2026-05-06 18:33 39.05675 -77.53674 10625 ft 311 kts 348°
2026-05-06 18:33 39.07934 -77.53885 10820 ft 339 kts 348°
2026-05-06 18:33 39.10373 -77.54116 11024 ft 364 kts 349°
2026-05-06 18:34 39.12984 -77.54359 11312 ft 384 kts 349°
2026-05-06 18:34 39.15687 -77.54604 11941 ft 394 kts 349°
2026-05-06 18:34 39.18443 -77.54851 12633 ft 399 kts 349°
2026-05-06 18:34 39.21221 -77.55103 13386 ft 402 kts 349°
2026-05-06 18:35 39.24021 -77.55361 14015 ft 406 kts 349°
2026-05-06 18:35 39.26868 -77.55627 14610 ft 409 kts 349°
2026-05-06 18:35 39.29689 -77.55888 15454 ft 406 kts 348°
2026-05-06 18:35 39.32529 -77.56157 16013 ft 411 kts 348°
2026-05-06 18:36 39.35402 -77.56430 16547 ft 416 kts 348°
2026-05-06 18:36 39.38312 -77.56572 17128 ft 424 kts 355°
2026-05-06 18:36 39.41282 -77.56111 17715 ft 435 kts
2026-05-06 18:36 39.44229 -77.54979 18272 ft 446 kts 13°
2026-05-06 18:37 39.47108 -77.53576 18736 ft 451 kts 14°
2026-05-06 18:37 39.50056 -77.52122 19163 ft 454 kts 13°
2026-05-06 18:37 39.53039 -77.50705 19603 ft 457 kts 12°
2026-05-06 18:37 39.56061 -77.49465 20050 ft 451 kts
2026-05-06 18:38 39.59122 -77.49331 20523 ft 432 kts 343°
2026-05-06 18:38 39.61957 -77.50316 21000 ft 414 kts 327°
2026-05-06 18:38 39.64401 -77.52162 21499 ft 399 kts 314°
2026-05-06 18:38 39.66414 -77.54566 21984 ft 390 kts 304°
2026-05-06 18:39 39.67962 -77.57397 22459 ft 381 kts 292°
2026-05-06 18:39 39.69013 -77.60531 22935 ft 377 kts 287°
2026-05-06 18:39 39.69952 -77.63663 23387 ft 377 kts 286°
2026-05-06 18:40 39.71847 -77.70090 24067 ft 380 kts 286°
2026-05-06 18:40 39.72791 -77.73258 24384 ft 381 kts 286°
2026-05-06 18:40 39.73758 -77.76474 24797 ft 380 kts 286°
2026-05-06 18:40 39.74724 -77.79672 25283 ft 378 kts 286°
2026-05-06 18:41 39.75684 -77.82839 25776 ft 376 kts 285°
2026-05-06 18:41 39.76639 -77.85997 25826 ft 374 kts 285°
2026-05-06 18:41 39.77588 -77.89137 25849 ft 374 kts 285°
2026-05-06 18:41 39.78528 -77.92257 25855 ft 374 kts 285°
2026-05-06 18:42 39.79480 -77.95418 25858 ft 375 kts 285°
2026-05-06 18:42 39.80433 -77.98584 25865 ft 375 kts 285°
2026-05-06 18:42 39.81383 -78.01745 25845 ft 375 kts 285°
2026-05-06 18:42 39.82335 -78.04914 25839 ft 376 kts 285°
2026-05-06 18:43 39.83389 -78.08039 25823 ft 380 kts 291°
2026-05-06 18:43 39.84711 -78.10986 25830 ft 385 kts 295°
2026-05-06 18:43 39.86345 -78.13790 25830 ft 391 kts 301°
2026-05-06 18:43 39.88125 -78.16477 25840 ft 390 kts 302°
2026-05-06 18:44 39.89903 -78.19156 25828 ft 389 kts 302°
2026-05-06 18:44 39.91659 -78.21816 25844 ft 387 kts 301°
2026-05-06 18:44 39.93405 -78.24479 25836 ft 386 kts 301°
2026-05-06 18:44 39.95142 -78.27139 25849 ft 385 kts 301°
2026-05-06 18:45 39.96878 -78.29802 25852 ft 385 kts 301°
2026-05-06 18:45 39.98613 -78.32466 25859 ft 385 kts 301°
2026-05-06 18:45 40.00348 -78.35127 25865 ft 385 kts 301°
2026-05-06 18:45 40.02089 -78.37788 25872 ft 386 kts 301°
2026-05-06 18:46 40.03833 -78.40454 25882 ft 386 kts 301°
2026-05-06 18:46 40.05578 -78.43123 25871 ft 387 kts 301°
2026-05-06 18:46 40.07305 -78.45767 25874 ft 388 kts 301°
2026-05-06 18:46 40.09059 -78.48457 25871 ft 389 kts 301°
2026-05-06 18:47 40.10817 -78.51155 25870 ft 389 kts 301°
2026-05-06 18:47 40.12569 -78.53846 25870 ft 389 kts 301°
2026-05-06 18:47 40.14321 -78.56541 25871 ft 389 kts 301°
2026-05-06 18:47 40.16073 -78.59236 25868 ft 388 kts 301°
2026-05-06 18:48 40.17822 -78.61930 25869 ft 388 kts 301°
2026-05-06 18:48 40.19567 -78.64619 25866 ft 387 kts 301°
2026-05-06 18:48 40.21303 -78.67299 25881 ft 386 kts 301°
2026-05-06 18:48 40.23040 -78.69983 25891 ft 386 kts 301°
2026-05-06 18:49 40.24775 -78.72666 25896 ft 386 kts 301°
2026-05-06 18:49 40.26486 -78.75315 25898 ft 386 kts 301°
2026-05-06 18:49 40.28221 -78.78002 25903 ft 386 kts 301°
2026-05-06 18:49 40.29955 -78.80689 25894 ft 386 kts 301°
2026-05-06 18:50 40.31691 -78.83373 25893 ft 386 kts 302°
2026-05-06 18:50 40.33499 -78.85996 25903 ft 389 kts 303°
2026-05-06 18:50 40.35357 -78.88573 25904 ft 389 kts 304°
2026-05-06 18:50 40.37236 -78.91137 25906 ft 389 kts 304°
2026-05-06 18:51 40.39114 -78.93695 25897 ft 389 kts 304°
2026-05-06 18:51 40.40994 -78.96263 25896 ft 389 kts 304°
2026-05-06 18:51 40.42861 -78.98825 25900 ft 388 kts 303°
2026-05-06 18:51 40.44724 -79.01393 25888 ft 388 kts 303°
2026-05-06 18:52 40.46585 -79.03967 25896 ft 388 kts 304°
2026-05-06 18:52 40.48418 -79.06509 25898 ft 387 kts 304°
2026-05-06 18:52 40.50271 -79.09080 25891 ft 387 kts 303°
2026-05-06 18:52 40.52124 -79.11655 25906 ft 387 kts 303°
2026-05-06 18:53 40.53971 -79.14225 25910 ft 386 kts 303°
2026-05-06 18:53 40.55822 -79.16803 25905 ft 387 kts 303°
2026-05-06 18:53 40.57667 -79.19374 25910 ft 387 kts 303°
2026-05-06 18:53 40.59514 -79.21951 25900 ft 387 kts 303°
2026-05-06 18:54 40.61362 -79.24533 25908 ft 386 kts 303°
2026-05-06 18:54 40.63184 -79.27078 25903 ft 386 kts 303°
2026-05-06 18:54 40.65027 -79.29654 25909 ft 386 kts 303°
2026-05-06 18:54 40.66868 -79.32232 25911 ft 385 kts 303°
2026-05-06 18:55 40.68705 -79.34804 25907 ft 385 kts 303°
2026-05-06 18:55 40.70544 -79.37380 25894 ft 385 kts 303°
2026-05-06 18:55 40.72375 -79.39949 25899 ft 385 kts 303°
2026-05-06 18:55 40.74209 -79.42527 25901 ft 385 kts 303°
2026-05-06 18:56 40.76042 -79.45104 25903 ft 386 kts 303°
2026-05-06 18:56 40.77884 -79.47695 25898 ft 386 kts 303°
2026-05-06 18:56 40.79693 -79.50242 25900 ft 386 kts 303°
2026-05-06 18:56 40.81524 -79.52823 25904 ft 386 kts 303°
2026-05-06 18:57 40.83356 -79.55407 25908 ft 385 kts 303°
2026-05-06 18:57 40.85191 -79.57997 25905 ft 385 kts 303°
2026-05-06 18:57 40.87025 -79.60587 25908 ft 385 kts 303°
2026-05-06 18:57 40.88854 -79.63174 25915 ft 385 kts 303°
2026-05-06 18:58 40.90683 -79.65766 25916 ft 385 kts 303°
2026-05-06 18:58 40.92511 -79.68355 25926 ft 385 kts 303°
2026-05-06 18:58 40.94338 -79.70944 25919 ft 385 kts 303°
2026-05-06 18:58 40.96169 -79.73543 25924 ft 386 kts 303°
2026-05-06 18:59 40.97998 -79.76140 25924 ft 386 kts 303°
2026-05-06 18:59 40.99828 -79.78741 25928 ft 386 kts 303°
2026-05-06 18:59 41.01634 -79.81311 25925 ft 386 kts 303°
2026-05-06 18:59 41.03463 -79.83915 25927 ft 386 kts 303°
2026-05-06 19:00 41.05290 -79.86519 25933 ft 386 kts 303°
2026-05-06 19:00 41.07118 -79.89127 25930 ft 386 kts 303°
2026-05-06 19:00 41.08946 -79.91739 25937 ft 386 kts 303°
2026-05-06 19:00 41.10161 -79.93474 25942 ft 386 kts 303°
2026-05-06 19:01 41.12601 -79.96964 25937 ft 386 kts 303°
2026-05-06 19:01 41.14427 -79.99577 25940 ft 386 kts 303°
2026-05-06 19:01 41.16246 -80.02182 25933 ft 380 kts 303°
2026-05-06 19:01 41.18004 -80.04689 25928 ft 362 kts 302°
2026-05-06 19:02 41.19685 -80.07092 25926 ft 351 kts 302°
2026-05-06 19:02 41.21335 -80.09470 25942 ft 349 kts 302°
2026-05-06 19:02 41.22980 -80.11846 25942 ft 350 kts 302°
2026-05-06 19:02 41.24438 -80.14304 25702 ft 332 kts 292°
2026-05-06 19:03 41.25410 -80.17014 25273 ft 320 kts 285°
2026-05-06 19:03 41.26232 -80.19753 24802 ft 317 kts 284°
2026-05-06 19:03 41.27033 -80.22476 24356 ft 315 kts 284°
2026-05-06 19:03 41.27828 -80.25181 23869 ft 313 kts 284°
2026-05-06 19:04 41.28623 -80.27870 23375 ft 312 kts 285°
2026-05-06 19:04 41.29418 -80.30550 22862 ft 310 kts 285°
2026-05-06 19:04 41.30211 -80.33212 22362 ft 308 kts 285°
2026-05-06 19:04 41.30999 -80.35852 21908 ft 306 kts 285°
2026-05-06 19:05 41.31770 -80.38434 21467 ft 304 kts 285°
2026-05-06 19:05 41.32546 -80.41036 21015 ft 302 kts 285°
2026-05-06 19:05 41.33318 -80.43628 20570 ft 300 kts 285°
2026-05-06 19:05 41.34086 -80.46205 20140 ft 299 kts 285°
2026-05-06 19:06 41.34852 -80.48784 19720 ft 301 kts 285°
2026-05-06 19:06 41.35625 -80.51385 19258 ft 303 kts 285°
2026-05-06 19:06 41.36411 -80.54042 18822 ft 314 kts 286°
2026-05-06 19:06 41.37220 -80.56774 18348 ft 319 kts 286°
2026-05-06 19:07 41.38040 -80.59530 17846 ft 318 kts 286°
2026-05-06 19:07 41.38578 -80.61338 17514 ft 317 kts 286°
2026-05-06 19:07 41.39654 -80.64966 16942 ft 312 kts 285°
2026-05-06 19:07 41.40439 -80.67617 16504 ft 310 kts 285°
2026-05-06 19:08 41.41224 -80.70282 16064 ft 308 kts 285°
2026-05-06 19:08 41.42003 -80.72937 15623 ft 307 kts 285°
2026-05-06 19:08 41.42782 -80.75599 15150 ft 307 kts 285°
2026-05-06 19:08 41.43556 -80.78245 14729 ft 306 kts 285°
2026-05-06 19:09 41.44328 -80.80885 14308 ft 305 kts 284°
2026-05-06 19:09 41.45098 -80.83524 13873 ft 305 kts 284°
2026-05-06 19:09 41.45869 -80.86168 13398 ft 305 kts 285°
2026-05-06 19:09 41.46638 -80.88806 12956 ft 304 kts 285°
2026-05-06 19:10 41.47393 -80.91399 12524 ft 303 kts 285°
2026-05-06 19:10 41.48153 -80.94011 12098 ft 301 kts 285°
2026-05-06 19:10 41.48918 -80.96640 11682 ft 299 kts 286°
2026-05-06 19:10 41.49659 -80.99190 11275 ft 297 kts 286°
2026-05-06 19:11 41.50404 -81.01755 10877 ft 295 kts 287°
2026-05-06 19:11 41.51142 -81.04303 10485 ft 293 kts 286°
2026-05-06 19:11 41.51578 -81.06909 10236 ft 282 kts 270°
2026-05-06 19:11 41.51541 -81.09476 10097 ft 272 kts 265°
2026-05-06 19:12 41.51422 -81.11955 9943 ft 264 kts 264°
2026-05-06 19:12 41.51303 -81.14303 9909 ft 244 kts 265°
2026-05-06 19:12 41.51193 -81.16576 9408 ft 243 kts 265°
2026-05-06 19:12 41.51092 -81.18815 9024 ft 240 kts 265°
2026-05-06 19:13 41.50995 -81.21033 8738 ft 239 kts 266°
2026-05-06 19:13 41.50896 -81.23240 8446 ft 238 kts 266°
2026-05-06 19:13 41.50806 -81.25411 8179 ft 237 kts 266°
2026-05-06 19:13 41.50713 -81.27616 7894 ft 236 kts 266°
2026-05-06 19:14 41.50620 -81.29799 7618 ft 235 kts 266°
2026-05-06 19:14 41.50529 -81.31978 7347 ft 235 kts 267°
2026-05-06 19:14 41.50439 -81.34129 7093 ft 235 kts 268°
2026-05-06 19:14 41.50353 -81.36306 6798 ft 235 kts 267°
2026-05-06 19:15 41.50252 -81.38481 6530 ft 235 kts 267°
2026-05-06 19:15 41.50154 -81.40660 6245 ft 234 kts 267°
2026-05-06 19:15 41.50064 -81.42829 5994 ft 232 kts 270°
2026-05-06 19:15 41.50085 -81.44975 5854 ft 232 kts 273°
2026-05-06 19:16 41.50145 -81.47145 5724 ft 238 kts 272°
2026-05-06 19:16 41.50210 -81.49387 5564 ft 244 kts 274°
2026-05-06 19:16 41.50270 -81.51608 5383 ft 240 kts 273°
2026-05-06 19:16 41.50326 -81.53808 5240 ft 234 kts 273°
2026-05-06 19:17 41.50376 -81.55960 5110 ft 229 kts 274°
2026-05-06 19:17 41.50423 -81.58041 4896 ft 221 kts 274°
2026-05-06 19:17 41.50467 -81.60041 4696 ft 211 kts 273°
2026-05-06 19:17 41.50495 -81.61330 4553 ft 208 kts 274°
2026-05-06 19:18 41.50536 -81.63243 4350 ft 202 kts 274°
2026-05-06 19:18 41.50576 -81.65070 4119 ft 191 kts 274°
2026-05-06 19:18 41.50324 -81.67326 3799 ft 183 kts 254°
2026-05-06 19:18 41.50054 -81.68389 3665 ft 181 kts 255°
2026-05-06 19:19 41.49681 -81.69926 3567 ft 169 kts 256°
2026-05-06 19:19 41.49213 -81.71878 3314 ft 166 kts 255°
2026-05-06 19:19 41.48889 -81.72839 3151 ft 172 kts 241°
2026-05-06 19:19 41.48190 -81.74181 2931 ft 185 kts 240°
2026-05-06 19:20 41.47426 -81.75610 2623 ft 191 kts 234°
2026-05-06 19:20 41.46585 -81.76913 2401 ft 178 kts 232°
2026-05-06 19:20 41.45820 -81.78114 2155 ft 161 kts 235°
2026-05-06 19:20 41.45124 -81.79207 1949 ft 148 kts 234°
2026-05-06 19:21 41.44464 -81.80256 1752 ft 147 kts 235°
2026-05-06 19:21 41.43786 -81.81332 1467 ft 155 kts 233°
2026-05-06 19:21 41.43099 -81.82427 1289 ft 155 kts 233°
2026-05-06 19:21 41.42398 -81.83535 1075 ft 156 kts 232°
2026-05-06 19:22 41.41714 -81.84628 851 ft 154 kts 230°
2026-05-06 19:22 41.41059 -81.85664 782 ft 130 kts 230°
2026-05-06 19:22 41.40588 -81.86402 783 ft 58 kts 230°
2026-05-06 19:22 41.40429 -81.86612 780 ft 23 kts 207°
2026-05-06 19:23 41.40340 -81.86648 778 ft 0 kts 189°
2026-05-06 19:24 41.40332 -81.86649 778 ft 1 kts 185°
2026-05-06 19:25 41.40321 -81.86644 777 ft 3 kts 159°
2026-05-06 19:25 41.40277 -81.86607 776 ft 13 kts 141°
2026-05-06 19:25 41.40195 -81.86516 772 ft 17 kts 140°
2026-05-06 19:25 41.40100 -81.86410 770 ft 17 kts 141°
2026-05-06 19:26 41.40028 -81.86331 773 ft 13 kts 140°
2026-05-06 19:26 41.39987 -81.86248 773 ft 10 kts 86°
2026-05-06 19:26 41.40023 -81.86167 774 ft 10 kts 49°
2026-05-06 19:26 41.40078 -81.86082 775 ft 16 kts 50°
2026-05-06 19:27 41.40158 -81.85977 776 ft 15 kts 28°
2026-05-06 19:27 41.40254 -81.85944 779 ft 14 kts 14°
2026-05-06 19:27 41.40332 -81.85876 780 ft 13 kts 48°
2026-05-06 19:27 41.40391 -81.85784 781 ft 13 kts 50°
2026-05-06 19:28 41.40458 -81.85679 784 ft 16 kts 49°
2026-05-06 19:28 41.40530 -81.85568 782 ft 16 kts 50°
2026-05-06 19:28 41.40598 -81.85459 783 ft 15 kts 51°
2026-05-06 19:28 41.40649 -81.85345 782 ft 14 kts 77°
2026-05-06 19:29 41.40648 -81.85216 782 ft 14 kts 93°
2026-05-06 19:29 41.40643 -81.85092 785 ft 13 kts 94°
2026-05-06 19:29 41.40638 -81.84973 787 ft 13 kts 94°
2026-05-06 19:29 41.40633 -81.84856 788 ft 12 kts 93°
2026-05-06 19:30 41.40628 -81.84743 789 ft 12 kts 94°
2026-05-06 19:30 41.40623 -81.84633 792 ft 12 kts 93°
2026-05-06 19:30 41.40619 -81.84525 794 ft 11 kts 93°
2026-05-06 19:30 41.40615 -81.84418 795 ft 12 kts 92°
2026-05-06 19:31 41.40610 -81.84297 795 ft 14 kts 90°
2026-05-06 19:31 41.40610 -81.84199 795 ft 8 kts 90°
2026-05-06 19:31 41.40647 -81.84068 796 ft 8 kts 33°
2026-05-06 19:32 41.40680 -81.84088 795 ft 5 kts 314°
2026-05-06 19:32 41.40699 -81.84112 795 ft 0 kts 318°
2026-05-06 19:33 41.40679 -81.84089 795 ft 0 kts 318°